Regional Weather Roundup
Issued by NWS Kansas City/Pleasant Hill, MO

Home | Current Version | Previous Version | Graphics & Text | Print | Product List | Glossary Off
Versions: 1 2 3 4 5 6 7 8 9 10 11 12 13 14 15 16 17 18 19 20 21 22 23 24 25 26 27 28 29 30 31 32 33 34 35 36 37 38 39 40 41 42 43 44 45 46 47 48 49 50

546
ASUS43 KEAX 250010
RWREAX

WEATHER ROUNDUP FOR EASTERN KANSAS AND NORTHWEST MISSOURI
NATIONAL WEATHER SERVICE KANSAS CITY/PLEASANT HILL MO
700 PM CDT MON JUL 24 2017

KSZ040-057-103>105-MOZ028-029-037-043-250100-
...KANSAS CITY METROPOLITAN AREA...

CITY           SKY/WX    TMP DP  RH WIND       PRES   REMARKS
K.C. INTL      MOSUNNY   86  67  52 SE9       29.98S
6HR MIN TEMP:  83; 6HR MAX TEMP:  88;

K.C. DOWNTOWN  SUNNY     86  68  54 E9        29.95F
6HR MIN TEMP:  85; 6HR MAX TEMP:  89;

LEES SUMMIT    SUNNY     84  68  58 E8        29.99S
6HR MIN TEMP:  83; 6HR MAX TEMP:  86;

OLATHE - IXD   SUNNY     87  70  56 E5        29.98S HX  92
6HR MIN TEMP:  85; 6HR MAX TEMP:  89;

OLATHE - OJC   SUNNY     84  70  62 SE5       29.98S
6HR MIN TEMP:  83; 6HR MAX TEMP:  86;

LAWRENCE       MOSUNNY   87  75  67 CALM      29.96S HX  96

$$

MOZ001>008-011>017-020>025-030>033-038>040-044>046-053-054-250100-
...NORTHERN AND CENTRAL MISSOURI...

CITY           SKY/WX    TMP DP  RH WIND       PRES   REMARKS
ST. JOSEPH     SUNNY     85  67  54 SE8       29.97S
6HR MIN TEMP:  84; 6HR MAX TEMP:  88;

MOSBY          CLEAR     82  66  57 SE7       29.98S
WARRENSBURG    SUNNY     82  66  57 NE5       29.98S
WHITEMAN AFB   SUNNY     84  69  59 NE8       29.97S
6HR MIN TEMP:  84; 6HR MAX TEMP:  87;

CLINTON        SUNNY     86  68  54 NE6       29.97S
SEDALIA        SUNNY     84  71  65 N6        29.99F
6HR MIN TEMP:  84; 6HR MAX TEMP:  88;

WARSAW         NOT AVBL
CHILLICOTHE      N/A     84  67  56 NE5       30.00S
6HR MIN TEMP:  80; 6HR MAX TEMP:  86;

KIRKSVILLE     SUNNY     83  63  50 E5        30.02R
6HR MIN TEMP:  81; 6HR MAX TEMP:  85;


$$

MOZ041-047>049-056>058-063>065-088>090-097-250100-
...EASTERN AND SOUTHERN MISSOURI...

CITY           SKY/WX    TMP DP  RH WIND       PRES   REMARKS
ST. LOUIS INTL MOSUNNY   87  63  44 N9        29.97R
6HR MIN TEMP:  87; 6HR MAX TEMP:  91;

SPIRIT OF STL  SUNNY     87  65  47 N8        29.94S
COLUMBIA       SUNNY     83  67  58 NE8       29.98S
JEFFERSON CITY SUNNY     87  68  52 N6        29.95S HX  90
ROLLA          SUNNY     86  67  52 N6        29.96F
OSAGE BEACH    SUNNY     88  66  48 VRB6      29.96S HX  90
SPRINGFIELD    PTSUNNY   84  75  74 NW3       29.96S HX  92
BRANSON        MOSUNNY   91  64  40 NW8       29.96F HX  93
JOPLIN         SUNNY     95  71  45 SW5       29.94F HX 102
WEST PLAINS    MOSUNNY   87  74  64 CALM      29.97S HX  95

$$

IAZ060-094-KSZ022-034>040-054-083-096-NEZ052-066-093-250100-
...KANSAS...SOUTHEAST NEBRASKA AND IOWA...

CITY           SKY/WX    TMP DP  RH WIND       PRES   REMARKS
TOPEKA         SUNNY     88  74  63 E6        29.95S HX  96
6HR MIN TEMP:  85; 6HR MAX TEMP:  90;

MANHATTAN      SUNNY     92  74  55 SE12      29.93S HX 101
EMPORIA        MOSUNNY   92  72  51 S7        29.95S HX  99
CHANUTE        SUNNY     93  69  45 E7        29.94F HX  98
WICHITA        MOSUNNY   96  65  35 S10       29.92S HX  98
OMAHA          MOSUNNY   85  65  51 SE14      29.96S
LINCOLN        SUNNY     87  68  52 SE12      29.94F HX  90
FALLS CITY     SUNNY     83  68  60 SE8       29.95F
LAMONI         SUNNY     83  63  50 S8        29.99F
DES MOINES     MOSUNNY   82  62  50 SE6       30.00R

$$





USA.gov is the U.S. government's official web portal to all federal, state and local government web resources and services.